Flag for U.S.A. Weather past 2 weeks in Olathe, Kansas, U.S.A.

Now
60 °F

Low clouds.


Feels Like: 60 °F
Forecast: 54 / 67 °F
Wind: 13 mph from South

Location: Johnson County Executive Airport

Current Time: May 23, 2015 at 11:39:50 AM

Latest Report: May 23, 2015 at 10:53 AM


Visibility: 10 mi

Pressure: 30.20 "Hg

Humidity: 93%

Dew point: 58 °F

Location of OlatheLocation

Historic Weather in Olathe — Graph

°F

Olathe temperature yesterday

Maximum temperature yesterday: 63 °F (at 1:53 PM)
Minimum temperature yesterday: 46 °F (at 5:53 AM)
Average temperature yesterday: 57 °F

Past Weeks' High & Low Weather Summary

 TemperatureHumidityPressure
High81 °F (May 16, 4:53 PM)100% (May 8, 10:53 AM)30.33 "Hg (May 8, 10:53 AM)
Low45 °F (May 11, 6:53 AM)31% (May 12, 4:53 PM)29.68 "Hg (May 17, 2:53 AM)
Average62 °F76%30.04 "Hg
* Reported May 8 9:53 AM — May 23 9:53 AM, Olathe, Weather by CustomWeather, © 2015

Note: Actual official high and low records may vary slightly from our data, if they occured in-between our weather recording intervals... More about our weather records

Advertising

Olathe weather history for previous 24 hours

 ConditionsComfort  
Time TempWeatherWind HumidityBarometerVisibility
9:53 AM
Sat, May 23
59 °FLow clouds.8 mph93%30.21 "Hg10 mi
8:53 AM58 °FLow clouds.10 mph93%30.21 "Hg10 mi
7:59 AM57 °FLight rain. Fog.12 mph93%30.21 "Hg4 mi
6:53 AM57 °FOvercast.6 mph90%30.20 "Hg10 mi
5:53 AM56 °FLight rain. Fog.7 mph90%30.20 "Hg4 mi
4:53 AM59 °FOvercast.8 mph75%30.18 "Hg10 mi
3:53 AM59 °FMostly cloudy.10 mph75%30.18 "Hg10 mi
2:53 AM60 °FMostly cloudy.9 mph72%30.18 "Hg10 mi
1:53 AM60 °FOvercast.8 mph75%30.17 "Hg10 mi
12:53 AM60 °FMostly cloudy.8 mph80%30.18 "Hg10 mi
11:53 PM
Fri, May 22
60 °FMostly cloudy.9 mph78%30.19 "Hg10 mi
10:53 PM60 °FOvercast.7 mph75%30.20 "Hg10 mi
9:53 PM60 °FMostly cloudy.6 mph75%30.19 "Hg10 mi
8:53 PM60 °FOvercast.6 mph72%30.18 "Hg10 mi
7:53 PM62 °FOvercast.7 mph67%30.17 "Hg10 mi
6:53 PM62 °FOvercast.5 mph70%30.19 "Hg10 mi
5:53 PM62 °FMostly cloudy.9 mph65%30.21 "Hg10 mi
4:53 PM63 °FLight rain. Mostly cloudy.5 mph68%30.22 "Hg10 mi
3:53 PM62 °FOvercast.8 mph62%30.22 "Hg10 mi
2:53 PM62 °FOvercast.9 mph58%30.21 "Hg10 mi
1:53 PM63 °FSunny.8 mph60%30.23 "Hg10 mi
12:53 PM61 °FPassing clouds.8 mph60%30.26 "Hg10 mi
11:53 AM58 °FPassing clouds.6 mph67%30.26 "Hg10 mi
Weather by CustomWeather, © 2015

See weather overviewHow to use our weather pages